Tracking 26321 objects as of 28-Nov-2022
HD Live streaming from Space Station
objects crossing your sky now

ATLAS 5 CENTAUR DEB

Track ATLAS 5 CENTAUR DEB now!


NORAD ID: 49355
Int'l Code: 2018-079FG
Perigee: 9,554.9 km
Apogee: 36,430.3 km
Inclination: 10.5 °
Period: 834.6 minutes
Semi major axis: 29363 km
RCS: Unknown
Launch date: October 17, 2018
Source: United States (US)
Launch site: AIR FORCE EASTERN TEST RANGE (AFETR)

Note: This is SATELLITE DEBRIS
aabbcc
Your satellite tracking list
Your tracking list is empty




NASA's NSSDC Master Catalog

Two Line Element Set (TLE):
1 49355U 18079FG  22322.28933603 -.00000070  00000-0  00000+0 0  9993
2 49355  10.5098 180.0725 4576308  43.4927 344.8511  1.72539735  7696
Source of the keplerian elements: AFSPC